TimeEST,TemperatureF,Dew PointF,Humidity,Sea Level PressureIn,VisibilityMPH,Wind Direction,Wind SpeedMPH,Gust SpeedMPH,PrecipitationIn,Events,Conditions,WindDirDegrees,DateUTC
12:50 AM,51.8,50.0,94,30.07,7.0,Calm,Calm,-,N/A,,Scattered Clouds,0,2012-12-09 05:50:00
12:55 AM,51.4,50.0,95,30.07,8.0,Calm,Calm,-,N/A,,Scattered Clouds,0,2012-12-09 05:55:00
12:59 AM,50.0,50.0,100,30.07,2.5,Calm,Calm,-,N/A,,Partly Cloudy,0,2012-12-09 05:59:00
1:04 AM,50.0,48.2,94,30.07,2.5,Calm,Calm,-,N/A,,Partly Cloudy,0,2012-12-09 06:04:00
1:06 AM,50.0,48.2,94,30.07,3.0,Calm,Calm,-,N/A,,Partly Cloudy,0,2012-12-09 06:06:00
1:08 AM,50.0,48.2,94,30.07,5.0,Calm,Calm,-,N/A,,Partly Cloudy,0,2012-12-09 06:08:00
1:16 AM,50.0,50.0,100,30.07,7.0,Calm,Calm,-,N/A,,Clear,0,2012-12-09 06:16:00
1:55 AM,51.6,49.5,92,30.07,10.0,Calm,Calm,-,N/A,,Mostly Cloudy,0,2012-12-09 06:55:00
2:55 AM,50.2,47.5,90,30.08,10.0,Calm,Calm,-,N/A,,Mostly Cloudy,0,2012-12-09 07:55:00
3:55 AM,48.9,46.9,93,30.07,10.0,Calm,Calm,-,N/A,,Mostly Cloudy,0,2012-12-09 08:55:00
4:45 AM,53.6,51.8,94,30.08,10.0,Calm,Calm,-,N/A,,Overcast,0,2012-12-09 09:45:00
4:55 AM,52.5,50.7,94,30.07,10.0,Calm,Calm,-,N/A,,Overcast,0,2012-12-09 09:55:00
5:01 AM,51.8,50.0,94,30.08,10.0,Calm,Calm,-,N/A,,Overcast,0,2012-12-09 10:01:00
5:12 AM,51.8,50.0,94,30.09,10.0,Calm,Calm,-,N/A,,Overcast,0,2012-12-09 10:12:00
5:14 AM,51.8,50.0,94,30.09,10.0,Calm,Calm,-,N/A,,Overcast,0,2012-12-09 10:14:00
5:34 AM,53.6,51.8,94,30.09,10.0,Calm,Calm,-,N/A,,Overcast,0,2012-12-09 10:34:00
5:55 AM,54.5,52.5,93,30.09,10.0,Calm,Calm,-,N/A,,Overcast,0,2012-12-09 10:55:00
5:59 AM,55.4,51.8,88,30.09,10.0,Calm,Calm,-,N/A,,Overcast,0,2012-12-09 10:59:00
6:30 AM,55.4,53.6,94,30.10,9.0,Calm,Calm,-,N/A,,Overcast,0,2012-12-09 11:30:00
6:39 AM,55.4,53.6,94,30.10,9.0,SE,3.5,-,N/A,,Overcast,130,2012-12-09 11:39:00
6:55 AM,55.4,53.8,94,30.11,10.0,Calm,Calm,-,N/A,,Overcast,0,2012-12-09 11:55:00
7:04 AM,55.4,53.6,94,30.11,10.0,Calm,Calm,-,N/A,,Overcast,0,2012-12-09 12:04:00
7:51 AM,57.2,55.4,94,30.11,6.0,Calm,Calm,-,N/A,,Overcast,0,2012-12-09 12:51:00
7:55 AM,56.5,55.0,95,30.12,4.0,Calm,Calm,-,N/A,,Overcast,0,2012-12-09 12:55:00
7:57 AM,57.2,55.4,94,30.12,2.5,Calm,Calm,-,N/A,,Overcast,0,2012-12-09 12:57:00
7:59 AM,57.2,55.4,94,30.12,1.8,Calm,Calm,-,N/A,,Overcast,0,2012-12-09 12:59:00
8:00 AM,57.2,55.4,94,30.12,1.2,Calm,Calm,-,N/A,,Overcast,0,2012-12-09 13:00:00
8:01 AM,57.2,55.4,94,30.12,1.0,Calm,Calm,-,N/A,,Mist,0,2012-12-09 13:01:00
8:02 AM,57.2,55.4,94,30.12,0.8,Calm,Calm,-,N/A,,Mist,0,2012-12-09 13:02:00
8:04 AM,57.2,55.4,94,30.12,0.5,Calm,Calm,-,N/A,Fog,Fog,0,2012-12-09 13:04:00
8:07 AM,57.2,55.4,94,30.11,0.5,Calm,Calm,-,N/A,Fog,Fog,0,2012-12-09 13:07:00
8:08 AM,57.2,55.4,94,30.12,0.5,Calm,Calm,-,N/A,Fog,Fog,0,2012-12-09 13:08:00
8:09 AM,57.2,55.4,94,30.12,0.2,Calm,Calm,-,N/A,Fog,Fog,0,2012-12-09 13:09:00
8:11 AM,57.2,55.4,94,30.12,0.2,Calm,Calm,-,N/A,Fog,Fog,0,2012-12-09 13:11:00
8:15 AM,57.2,55.4,94,30.12,0.2,ESE,3.5,-,N/A,Fog,Fog,120,2012-12-09 13:15:00
8:16 AM,57.2,55.4,94,30.12,0.2,ESE,3.5,-,N/A,Fog,Fog,120,2012-12-09 13:16:00
8:55 AM,57.2,56.8,99,30.12,0.2,SE,3.5,-,N/A,Fog,Fog,140,2012-12-09 13:55:00
9:55 AM,59.0,59.0,100,30.14,0.2,SW,3.5,-,N/A,Fog,Fog,220,2012-12-09 14:55:00
9:57 AM,59.0,59.0,100,30.14,0.2,SSW,3.5,-,N/A,Fog,Fog,200,2012-12-09 14:57:00
10:04 AM,59.0,59.0,100,30.14,0.2,SSW,5.8,-,N/A,Fog,Fog,200,2012-12-09 15:04:00
10:06 AM,59.0,59.0,100,30.14,0.5,SSW,3.5,-,N/A,Fog,Fog,200,2012-12-09 15:06:00
10:09 AM,59.0,59.0,100,30.14,0.5,South,3.5,-,N/A,Fog,Fog,190,2012-12-09 15:09:00
10:13 AM,59.0,59.0,100,30.13,0.8,South,3.5,-,N/A,,Mist,190,2012-12-09 15:13:00
10:14 AM,59.0,59.0,100,30.13,0.8,South,3.5,-,N/A,,Mist,190,2012-12-09 15:14:00
10:17 AM,60.8,60.8,100,30.13,1.0,South,3.5,-,N/A,,Mist,180,2012-12-09 15:17:00
10:22 AM,60.8,60.8,100,30.13,1.2,Calm,Calm,-,N/A,,Overcast,0,2012-12-09 15:22:00
10:24 AM,60.8,60.8,100,30.13,1.5,Calm,Calm,-,N/A,,Overcast,0,2012-12-09 15:24:00
10:26 AM,60.8,60.8,100,30.13,1.8,Calm,Calm,-,N/A,,Overcast,0,2012-12-09 15:26:00
10:27 AM,60.8,60.8,100,30.13,2.0,Calm,Calm,-,N/A,,Overcast,0,2012-12-09 15:27:00
10:30 AM,60.8,60.8,100,30.13,3.0,Calm,Calm,-,N/A,,Overcast,0,2012-12-09 15:30:00
10:36 AM,60.8,60.8,100,30.13,9.0,South,3.5,-,N/A,,Overcast,170,2012-12-09 15:36:00
10:46 AM,60.8,60.8,100,30.13,10.0,South,3.5,-,N/A,,Overcast,170,2012-12-09 15:46:00
10:55 AM,62.6,62.6,100,30.12,10.0,SE,3.5,-,N/A,,Overcast,140,2012-12-09 15:55:00
10:58 AM,64.4,64.4,100,30.12,10.0,SSE,3.5,-,N/A,,Overcast,150,2012-12-09 15:58:00
11:07 AM,64.4,64.4,100,30.12,10.0,South,3.5,-,N/A,,Mostly Cloudy,190,2012-12-09 16:07:00
11:21 AM,66.2,64.4,94,30.11,10.0,Variable,3.5,-,N/A,,Mostly Cloudy,0,2012-12-09 16:21:00
11:24 AM,66.2,60.8,83,30.11,10.0,Variable,3.5,-,N/A,,Scattered Clouds,0,2012-12-09 16:24:00
11:55 AM,70.0,57.7,65,30.09,10.0,Variable,5.8,-,N/A,,Clear,0,2012-12-09 16:55:00
12:55 PM,73.6,57.7,58,30.06,10.0,South,8.1,-,N/A,,Scattered Clouds,170,2012-12-09 17:55:00
1:55 PM,74.1,57.4,56,30.05,10.0,SSW,10.4,-,N/A,,Clear,210,2012-12-09 18:55:00
2:55 PM,74.7,57.6,55,30.05,10.0,SSW,9.2,-,N/A,,Partly Cloudy,200,2012-12-09 19:55:00
3:55 PM,73.0,57.9,59,30.04,10.0,SSW,8.1,-,N/A,,Clear,200,2012-12-09 20:55:00
4:55 PM,71.6,58.5,63,30.04,10.0,SSE,5.8,-,N/A,,Clear,160,2012-12-09 21:55:00
5:55 PM,68.0,58.5,71,30.04,10.0,Calm,Calm,-,N/A,,Mostly Cloudy,0,2012-12-09 22:55:00
6:55 PM,66.4,58.3,75,30.04,10.0,Calm,Calm,-,N/A,,Overcast,0,2012-12-09 23:55:00
7:55 PM,64.9,57.7,77,30.04,10.0,Calm,Calm,-,N/A,,Mostly Cloudy,0,2012-12-10 00:55:00
8:13 PM,64.4,57.2,77,30.04,10.0,Calm,Calm,-,N/A,,Overcast,0,2012-12-10 01:13:00
8:35 PM,66.2,59.0,78,30.03,10.0,WNW,5.8,-,N/A,,Overcast,300,2012-12-10 01:35:00
8:55 PM,65.8,58.5,77,30.03,10.0,Calm,Calm,-,N/A,,Mostly Cloudy,0,2012-12-10 01:55:00
9:08 PM,64.4,59.0,83,30.03,10.0,WNW,5.8,-,N/A,,Mostly Cloudy,290,2012-12-10 02:08:00
9:19 PM,64.4,57.2,77,30.02,10.0,NW,4.6,-,N/A,,Mostly Cloudy,320,2012-12-10 02:19:00
9:55 PM,64.8,57.9,78,30.01,10.0,Calm,Calm,-,N/A,,Mostly Cloudy,0,2012-12-10 02:55:00
10:55 PM,62.4,57.6,84,30.01,10.0,Calm,Calm,-,N/A,,Mostly Cloudy,0,2012-12-10 03:55:00
11:16 PM,60.8,57.2,88,30.00,10.0,Calm,Calm,-,N/A,,Overcast,0,2012-12-10 04:16:00
11:34 PM,60.8,57.2,88,29.99,10.0,Calm,Calm,-,N/A,,Overcast,0,2012-12-10 04:34:00
11:55 PM,60.4,57.6,90,29.99,10.0,Calm,Calm,-,N/A,,Scattered Clouds,0,2012-12-10 04:55:00